Time,TemperatureF,DewpointF,PressureIn,WindDirection,WindDirectionDegrees,WindSpeedMPH,WindSpeedGustMPH,Humidity,HourlyPrecipIn,Conditions,Clouds,dailyrainin,SolarRadiationWatts/m^2,SoftwareType,DateUTC
2013-07-29 00:09:00,60.1,53.0,30.00,East,101,0.0,-999.0,78,-99.99,,,0.00,0,weatherlink.com 1.10,2013-07-29 05:09:00,
2013-07-29 00:25:00,59.8,53.0,30.00,East,101,0.0,-999.0,79,-99.99,,,0.00,0,weatherlink.com 1.10,2013-07-29 05:25:00,
2013-07-29 00:39:00,59.2,53.0,30.00,East,101,0.0,-999.0,80,-99.99,,,0.00,0,weatherlink.com 1.10,2013-07-29 05:39:00,
2013-07-29 00:54:00,58.9,53.0,30.00,East,101,0.0,-999.0,81,-99.99,,,0.00,0,weatherlink.com 1.10,2013-07-29 05:54:00,
2013-07-29 01:09:00,58.4,53.0,30.00,East,101,0.0,-999.0,82,-99.99,,,0.00,0,weatherlink.com 1.10,2013-07-29 06:09:00,
2013-07-29 01:24:00,58.1,53.0,30.01,East,101,0.0,-999.0,83,-99.99,,,0.00,0,weatherlink.com 1.10,2013-07-29 06:24:00,
2013-07-29 01:39:00,57.6,53.0,30.01,East,101,0.0,-999.0,84,-99.99,,,0.00,0,weatherlink.com 1.10,2013-07-29 06:39:00,
2013-07-29 01:55:00,57.2,53.0,30.01,East,101,0.0,-999.0,85,-99.99,,,0.00,0,weatherlink.com 1.10,2013-07-29 06:55:00,
2013-07-29 02:10:00,56.7,53.0,30.01,East,101,0.0,-999.0,86,-99.99,,,0.00,0,weatherlink.com 1.10,2013-07-29 07:10:00,
2013-07-29 02:25:00,56.3,52.0,30.01,East,101,0.0,-999.0,86,-99.99,,,0.00,0,weatherlink.com 1.10,2013-07-29 07:25:00,
2013-07-29 02:48:00,56.0,53.0,30.02,East,101,0.0,-999.0,88,-99.99,,,0.00,0,weatherlink.com 1.10,2013-07-29 07:48:00,
2013-07-29 02:55:00,56.0,53.0,30.02,East,101,0.0,-999.0,88,-99.99,,,0.00,0,weatherlink.com 1.10,2013-07-29 07:55:00,
2013-07-29 03:10:00,56.0,53.0,30.02,East,101,0.0,-999.0,88,-99.99,,,0.00,0,weatherlink.com 1.10,2013-07-29 08:10:00,
2013-07-29 03:25:00,56.2,53.0,30.02,East,101,0.0,-999.0,88,-99.99,,,0.00,0,weatherlink.com 1.10,2013-07-29 08:25:00,
2013-07-29 03:40:00,56.3,53.0,30.02,East,101,0.0,-999.0,87,-99.99,,,0.00,0,weatherlink.com 1.10,2013-07-29 08:40:00,
2013-07-29 03:57:00,56.2,52.0,30.02,East,101,0.0,-999.0,87,-99.99,,,0.00,0,weatherlink.com 1.10,2013-07-29 08:57:00,
2013-07-29 04:10:00,56.0,52.0,30.02,East,101,0.0,-999.0,87,-99.99,,,0.00,0,weatherlink.com 1.10,2013-07-29 09:10:00,
2013-07-29 04:25:00,55.7,52.0,30.02,East,101,0.0,-999.0,87,-99.99,,,0.00,0,weatherlink.com 1.10,2013-07-29 09:25:00,
2013-07-29 04:40:00,55.4,52.0,30.02,East,101,0.0,-999.0,87,-99.99,,,0.00,0,weatherlink.com 1.10,2013-07-29 09:40:00,
2013-07-29 04:55:00,55.3,52.0,30.02,East,101,0.0,-999.0,88,-99.99,,,0.00,0,weatherlink.com 1.10,2013-07-29 09:55:00,
2013-07-29 05:10:00,54.4,51.0,30.03,East,101,0.0,-999.0,89,-99.99,,,0.00,0,weatherlink.com 1.10,2013-07-29 10:10:00,
2013-07-29 05:25:00,53.5,50.0,30.02,East,101,0.0,-999.0,89,-99.99,,,0.00,0,weatherlink.com 1.10,2013-07-29 10:25:00,
2013-07-29 05:55:00,53.3,51.0,30.03,East,101,0.0,-999.0,91,-99.99,,,0.00,0,weatherlink.com 1.10,2013-07-29 10:55:00,
2013-07-29 06:16:00,53.3,51.0,30.04,East,101,0.0,-999.0,92,-99.99,,,0.00,0,weatherlink.com 1.10,2013-07-29 11:16:00,
2013-07-29 06:25:00,53.2,51.0,30.04,East,101,0.0,-999.0,92,-99.99,,,0.00,5,weatherlink.com 1.10,2013-07-29 11:25:00,
2013-07-29 06:40:00,53.3,51.0,30.05,East,101,0.0,-999.0,92,-99.99,,,0.00,9,weatherlink.com 1.10,2013-07-29 11:40:00,
2013-07-29 06:55:00,53.3,51.0,30.05,East,101,0.0,-999.0,92,-99.99,,,0.00,14,weatherlink.com 1.10,2013-07-29 11:55:00,
2013-07-29 07:27:00,54.8,53.0,30.05,NW,316,0.0,-999.0,93,-99.99,,,0.00,30,weatherlink.com 1.10,2013-07-29 12:27:00,
2013-07-29 07:40:00,55.9,54.0,30.05,NW,315,2.0,-999.0,92,-99.99,,,0.00,33,weatherlink.com 1.10,2013-07-29 12:40:00,
2013-07-29 07:55:00,56.7,54.0,30.04,NW,315,2.0,-999.0,91,-99.99,,,0.00,40,weatherlink.com 1.10,2013-07-29 12:55:00,
2013-07-29 08:10:00,57.6,54.0,30.05,NW,312,0.0,-999.0,89,-99.99,,,0.00,39,weatherlink.com 1.10,2013-07-29 13:10:00,
2013-07-29 08:25:00,58.9,55.0,30.06,NW,313,1.0,-999.0,86,-99.99,,,0.00,65,weatherlink.com 1.10,2013-07-29 13:25:00,
2013-07-29 08:40:00,60.4,56.0,30.05,West,272,3.0,-999.0,84,-99.99,,,0.00,179,weatherlink.com 1.10,2013-07-29 13:40:00,
2013-07-29 09:10:00,66.4,58.0,30.05,WNW,298,0.0,-999.0,73,-99.99,,,0.00,482,weatherlink.com 1.10,2013-07-29 14:10:00,
2013-07-29 09:25:00,67.4,57.0,30.05,North,350,3.0,-999.0,69,-99.99,,,0.00,100,weatherlink.com 1.10,2013-07-29 14:25:00,
2013-07-29 09:47:00,68.3,57.0,30.04,NW,315,5.0,-999.0,68,-99.99,,,0.00,141,weatherlink.com 1.10,2013-07-29 14:47:00,
2013-07-29 10:25:00,69.1,57.0,30.03,WNW,302,2.0,-999.0,66,-99.99,,,0.00,153,weatherlink.com 1.10,2013-07-29 15:25:00,
2013-07-29 10:40:00,69.1,58.0,30.04,NNW,331,0.0,-999.0,68,-99.99,,,0.00,251,weatherlink.com 1.10,2013-07-29 15:40:00,
2013-07-29 10:57:00,69.9,59.0,30.05,NW,317,0.0,-999.0,68,-99.99,,,0.00,251,weatherlink.com 1.10,2013-07-29 15:57:00,
2013-07-29 11:10:00,70.6,58.0,30.04,NW,326,1.0,-999.0,65,-99.99,,,0.00,329,weatherlink.com 1.10,2013-07-29 16:10:00,
2013-07-29 11:26:00,71.6,58.0,30.05,NNW,331,4.0,-999.0,62,-99.99,,,0.00,308,weatherlink.com 1.10,2013-07-29 16:26:00,
2013-07-29 11:41:00,71.6,57.0,30.05,NNW,346,0.0,-999.0,61,-99.99,,,0.00,234,weatherlink.com 1.10,2013-07-29 16:41:00,
2013-07-29 12:11:00,71.8,56.0,30.04,NW,321,2.0,-999.0,57,-99.99,,,0.00,302,weatherlink.com 1.10,2013-07-29 17:11:00,
2013-07-29 12:41:00,71.8,57.0,30.04,NW,313,3.0,-999.0,59,-99.99,,,0.00,244,weatherlink.com 1.10,2013-07-29 17:41:00,
2013-07-29 12:56:00,72.7,57.0,30.03,NW,308,10.0,-999.0,58,-99.99,,,0.00,475,weatherlink.com 1.10,2013-07-29 17:56:00,
2013-07-29 13:18:00,74.2,56.0,30.03,NW,313,5.0,-999.0,54,-99.99,,,0.00,457,weatherlink.com 1.10,2013-07-29 18:18:00,
2013-07-29 13:26:00,74.6,56.0,30.03,NW,314,2.0,-999.0,53,-99.99,,,0.00,325,weatherlink.com 1.10,2013-07-29 18:26:00,
2013-07-29 13:41:00,74.4,57.0,30.02,NW,323,3.0,-999.0,54,-99.99,,,0.00,313,weatherlink.com 1.10,2013-07-29 18:41:00,
2013-07-29 13:56:00,72.7,58.0,30.03,NW,315,3.0,-999.0,60,-99.99,,,0.00,134,weatherlink.com 1.10,2013-07-29 18:56:00,
2013-07-29 14:11:00,72.0,57.0,30.02,NW,321,3.0,-999.0,59,-99.99,,,0.00,213,weatherlink.com 1.10,2013-07-29 19:11:00,
2013-07-29 14:27:00,72.7,56.0,30.02,NW,311,4.0,-999.0,56,-99.99,,,0.00,232,weatherlink.com 1.10,2013-07-29 19:27:00,
2013-07-29 14:41:00,72.7,56.0,30.02,NW,315,3.0,-999.0,57,-99.99,,,0.00,171,weatherlink.com 1.10,2013-07-29 19:41:00,
2013-07-29 14:56:00,72.3,58.0,30.02,NW,309,4.0,-999.0,61,-99.99,,,0.00,146,weatherlink.com 1.10,2013-07-29 19:56:00,
2013-07-29 15:11:00,72.3,58.0,30.03,NW,320,2.0,-999.0,60,-99.99,,,0.00,165,weatherlink.com 1.10,2013-07-29 20:11:00,
2013-07-29 15:26:00,72.1,58.0,30.02,NW,319,3.0,-999.0,62,-99.99,,,0.00,120,weatherlink.com 1.10,2013-07-29 20:26:00,
2013-07-29 15:41:00,72.3,58.0,30.02,North,351,3.0,-999.0,61,-99.99,,,0.00,137,weatherlink.com 1.10,2013-07-29 20:41:00,
2013-07-29 15:56:00,72.1,59.0,30.02,NW,304,0.0,-999.0,64,-99.99,,,0.00,105,weatherlink.com 1.10,2013-07-29 20:56:00,
2013-07-29 16:11:00,72.0,59.0,30.02,NW,304,2.0,-999.0,63,-99.99,,,0.00,158,weatherlink.com 1.10,2013-07-29 21:11:00,
2013-07-29 16:26:00,72.5,60.0,30.02,NNW,331,3.0,-999.0,64,-99.99,,,0.00,141,weatherlink.com 1.10,2013-07-29 21:26:00,
2013-07-29 16:46:00,72.3,58.0,30.03,North,11,3.0,-999.0,61,-99.99,,,0.00,137,weatherlink.com 1.10,2013-07-29 21:46:00,
2013-07-29 16:56:00,72.1,58.0,30.03,North,355,2.0,-999.0,62,-99.99,,,0.00,141,weatherlink.com 1.10,2013-07-29 21:56:00,
2013-07-29 17:11:00,71.8,58.0,30.03,North,360,1.0,-999.0,63,-99.99,,,0.00,144,weatherlink.com 1.10,2013-07-29 22:11:00,
2013-07-29 17:26:00,71.3,59.0,30.03,NE,35,3.0,-999.0,66,-99.99,,,0.00,127,weatherlink.com 1.10,2013-07-29 22:26:00,
2013-07-29 17:41:00,70.3,59.0,30.02,North,355,3.0,-999.0,67,-99.99,,,0.00,90,weatherlink.com 1.10,2013-07-29 22:41:00,
2013-07-29 17:57:00,69.3,59.0,30.02,North,355,3.0,-999.0,70,-99.99,,,0.00,77,weatherlink.com 1.10,2013-07-29 22:57:00,
2013-07-29 18:26:00,68.8,59.0,30.01,NW,323,1.0,-999.0,71,-99.99,,,0.00,83,weatherlink.com 1.10,2013-07-29 23:26:00,
2013-07-29 18:41:00,68.6,59.0,30.01,NNW,327,1.0,-999.0,71,-99.99,,,0.00,84,weatherlink.com 1.10,2013-07-29 23:41:00,
2013-07-29 18:56:00,68.3,59.0,30.01,NNW,334,6.0,-999.0,72,-99.99,,,0.00,51,weatherlink.com 1.10,2013-07-29 23:56:00,
2013-07-29 19:11:00,68.1,59.0,30.00,NW,321,6.0,-999.0,73,-99.99,,,0.00,67,weatherlink.com 1.10,2013-07-30 00:11:00,
2013-07-29 19:41:00,67.6,59.0,30.00,NW,326,3.0,-999.0,74,-99.99,,,0.00,16,weatherlink.com 1.10,2013-07-30 00:41:00,
2013-07-29 19:56:00,67.1,59.0,30.00,NNW,340,1.0,-999.0,74,-99.99,,,0.00,19,weatherlink.com 1.10,2013-07-30 00:56:00,
2013-07-29 20:17:00,66.8,59.0,30.00,NW,316,0.0,-999.0,75,-99.99,,,0.00,14,weatherlink.com 1.10,2013-07-30 01:17:00,
2013-07-29 20:41:00,66.1,59.0,30.00,NW,311,2.0,-999.0,77,-99.99,,,0.00,0,weatherlink.com 1.10,2013-07-30 01:41:00,
2013-07-29 20:56:00,66.0,59.0,30.00,NW,311,0.0,-999.0,77,-99.99,,,0.00,0,weatherlink.com 1.10,2013-07-30 01:56:00,
2013-07-29 21:26:00,65.3,59.0,30.00,NW,311,0.0,-999.0,80,-99.99,,,0.00,0,weatherlink.com 1.10,2013-07-30 02:26:00,
2013-07-29 21:56:00,65.2,59.0,30.01,NW,311,0.0,-999.0,80,-99.99,,,0.00,0,weatherlink.com 1.10,2013-07-30 02:56:00,
2013-07-29 23:11:00,64.2,61.0,30.03,NW,311,0.0,-999.0,88,-99.99,,,0.01,0,weatherlink.com 1.10,2013-07-30 04:11:00,
2013-07-29 23:26:00,63.9,61.0,30.01,NW,311,1.0,-999.0,89,-99.99,,,0.02,0,weatherlink.com 1.10,2013-07-30 04:26:00,
2013-07-29 23:45:00,63.4,61.0,30.01,NW,311,0.0,-999.0,91,-99.99,,,0.03,0,weatherlink.com 1.10,2013-07-30 04:45:00,
2013-07-29 23:56:00,63.2,61.0,30.01,NW,311,0.0,-999.0,92,-99.99,,,0.03,0,weatherlink.com 1.10,2013-07-30 04:56:00,